Time,TemperatureF,DewpointF,PressureIn,WindDirection,WindDirectionDegrees,WindSpeedMPH,WindSpeedGustMPH,Humidity,HourlyPrecipIn,Conditions,Clouds,dailyrainin,SoftwareType,DateUTC
2013-10-18 00:00:00,49.9,38.2,30.00,NNW,331,0.0,10.0,64,0.00,,---,0.00,VWS V14.01,2013-10-18 05:00:00,
2013-10-18 00:01:00,47.9,37.5,30.01,NW,323,1.0,1.0,67,0.00,,---,0.00,VWS V14.01,2013-10-18 05:01:00,
2013-10-18 00:06:00,47.7,37.3,30.01,NNW,333,0.0,8.0,67,0.00,,---,0.00,VWS V14.01,2013-10-18 05:06:00,
2013-10-18 00:11:00,47.6,37.6,30.01,NNW,336,1.0,8.0,68,0.00,,---,0.00,VWS V14.01,2013-10-18 05:11:00,
2013-10-18 00:16:00,47.4,37.4,30.01,NNW,340,2.0,8.0,68,0.00,,---,0.00,VWS V14.01,2013-10-18 05:16:00,
2013-10-18 00:21:00,47.3,37.3,30.01,NNW,342,0.0,9.0,68,0.00,,---,0.00,VWS V14.01,2013-10-18 05:21:00,
2013-10-18 00:26:00,47.1,37.1,30.01,NNW,347,2.0,9.0,68,0.00,,---,0.00,VWS V14.01,2013-10-18 05:26:00,
2013-10-18 00:30:00,48.6,37.8,30.00,NNW,335,1.0,7.0,66,0.00,,---,0.00,VWS V14.01,2013-10-18 05:30:00,
2013-10-18 00:31:00,47.0,37.0,30.01,NNW,333,0.0,2.0,68,0.00,,---,0.00,VWS V14.01,2013-10-18 05:31:00,
2013-10-18 00:36:00,46.8,37.2,30.01,North,355,3.0,6.0,69,0.00,,---,0.00,VWS V14.01,2013-10-18 05:36:00,
2013-10-18 00:41:00,46.7,37.1,30.01,NW,321,0.0,6.0,69,0.00,,---,0.00,VWS V14.01,2013-10-18 05:41:00,
2013-10-18 00:46:00,46.7,37.1,30.01,NNW,329,0.0,6.0,69,0.00,,---,0.00,VWS V14.01,2013-10-18 05:46:00,
2013-10-18 00:51:00,46.5,36.9,30.01,NW,326,0.0,6.0,69,0.00,,---,0.00,VWS V14.01,2013-10-18 05:51:00,
2013-10-18 00:56:00,46.4,36.8,30.01,NNW,342,5.0,6.0,69,0.00,,---,0.00,VWS V14.01,2013-10-18 05:56:00,
2013-10-18 01:00:00,48.0,37.6,30.01,NW,322,1.0,8.0,67,0.00,,---,0.00,VWS V14.01,2013-10-18 06:00:00,
2013-10-18 01:01:00,46.2,37.0,30.01,NNW,344,1.0,5.0,70,0.00,,---,0.00,VWS V14.01,2013-10-18 06:01:00,
2013-10-18 01:06:00,46.1,36.9,30.01,NNW,348,4.0,6.0,70,0.00,,---,0.00,VWS V14.01,2013-10-18 06:06:00,
2013-10-18 01:11:00,46.0,36.8,30.01,NW,317,0.0,6.0,70,0.00,,---,0.00,VWS V14.01,2013-10-18 06:11:00,
2013-10-18 01:16:00,45.8,37.0,30.01,North,351,2.0,6.0,71,0.00,,---,0.00,VWS V14.01,2013-10-18 06:16:00,
2013-10-18 01:21:00,45.7,36.8,30.01,NNW,340,4.0,6.0,71,0.00,,---,0.00,VWS V14.01,2013-10-18 06:21:00,
2013-10-18 01:26:00,45.7,36.8,30.01,NW,324,0.0,8.0,71,0.00,,---,0.00,VWS V14.01,2013-10-18 06:26:00,
2013-10-18 01:30:00,47.0,37.0,30.01,NNW,333,2.0,9.0,68,0.00,,---,0.00,VWS V14.01,2013-10-18 06:30:00,
2013-10-18 01:31:00,45.7,36.8,30.01,North,360,7.0,7.0,71,0.00,,---,0.00,VWS V14.01,2013-10-18 06:31:00,
2013-10-18 01:36:00,45.5,36.7,30.01,North,355,2.0,7.0,71,0.00,,---,0.00,VWS V14.01,2013-10-18 06:36:00,
2013-10-18 01:41:00,45.4,36.9,30.01,NNW,329,0.0,7.0,72,0.00,,---,0.00,VWS V14.01,2013-10-18 06:41:00,
2013-10-18 01:46:00,45.2,36.7,30.01,NNW,341,0.0,7.0,72,0.00,,---,0.00,VWS V14.01,2013-10-18 06:46:00,
2013-10-18 01:51:00,45.2,36.7,30.01,NNW,332,0.0,7.0,72,0.00,,---,0.00,VWS V14.01,2013-10-18 06:51:00,
2013-10-18 01:56:00,45.1,36.6,30.01,NNW,329,1.0,7.0,72,0.00,,---,0.00,VWS V14.01,2013-10-18 06:56:00,
2013-10-18 02:00:00,46.2,37.0,30.01,NNW,345,5.0,6.0,70,0.00,,---,0.00,VWS V14.01,2013-10-18 07:00:00,
2013-10-18 02:01:00,44.9,36.4,30.02,WNW,303,0.0,2.0,72,0.00,,---,0.00,VWS V14.01,2013-10-18 07:01:00,
2013-10-18 02:06:00,44.8,36.3,30.02,NNW,336,2.0,7.0,72,0.00,,---,0.00,VWS V14.01,2013-10-18 07:06:00,
2013-10-18 02:11:00,44.8,36.3,30.02,North,355,0.0,7.0,72,0.00,,---,0.00,VWS V14.01,2013-10-18 07:11:00,
2013-10-18 02:16:00,44.6,36.5,30.02,NNW,329,5.0,7.0,73,0.00,,---,0.00,VWS V14.01,2013-10-18 07:16:00,
2013-10-18 02:21:00,44.5,36.4,30.02,NW,324,1.0,7.0,73,0.00,,---,0.00,VWS V14.01,2013-10-18 07:21:00,
2013-10-18 02:26:00,44.3,36.2,30.02,NNW,335,3.0,7.0,73,0.00,,---,0.00,VWS V14.01,2013-10-18 07:26:00,
2013-10-18 02:30:00,45.7,36.8,30.01,NNW,344,0.0,8.0,71,0.00,,---,0.00,VWS V14.01,2013-10-18 07:30:00,
2013-10-18 02:31:00,44.2,36.1,30.02,NW,325,1.0,1.0,73,0.00,,---,0.00,VWS V14.01,2013-10-18 07:31:00,
2013-10-18 02:36:00,44.2,36.1,30.02,NW,326,0.0,4.0,73,0.00,,---,0.00,VWS V14.01,2013-10-18 07:36:00,
2013-10-18 02:41:00,44.1,36.0,30.02,NNW,328,1.0,4.0,73,0.00,,---,0.00,VWS V14.01,2013-10-18 07:41:00,
2013-10-18 02:46:00,44.1,36.0,30.02,NNW,344,0.0,4.0,73,0.00,,---,0.00,VWS V14.01,2013-10-18 07:46:00,
2013-10-18 02:51:00,43.9,35.8,30.02,NNW,338,0.0,4.0,73,0.00,,---,0.00,VWS V14.01,2013-10-18 07:51:00,
2013-10-18 02:56:00,43.8,35.7,30.02,NNW,328,0.0,4.0,73,0.00,,---,0.00,VWS V14.01,2013-10-18 07:56:00,
2013-10-18 03:00:00,44.9,36.4,30.02,WNW,302,0.0,7.0,72,0.00,,---,0.00,VWS V14.01,2013-10-18 08:00:00,
2013-10-18 03:01:00,43.8,36.1,30.03,NNW,348,3.0,4.0,74,0.00,,---,0.00,VWS V14.01,2013-10-18 08:01:00,
2013-10-18 03:06:00,43.8,36.1,30.03,NNW,347,3.0,4.0,74,0.00,,---,0.00,VWS V14.01,2013-10-18 08:06:00,
2013-10-18 03:11:00,43.6,35.9,30.03,NNW,342,3.0,4.0,74,0.00,,---,0.00,VWS V14.01,2013-10-18 08:11:00,
2013-10-18 03:16:00,43.5,35.8,30.02,NNW,339,0.0,4.0,74,0.00,,---,0.00,VWS V14.01,2013-10-18 08:16:00,
2013-10-18 03:21:00,43.3,35.6,30.02,NW,313,2.0,4.0,74,0.00,,---,0.00,VWS V14.01,2013-10-18 08:21:00,
2013-10-18 03:26:00,43.3,35.6,30.02,NNW,330,0.0,4.0,74,0.00,,---,0.00,VWS V14.01,2013-10-18 08:26:00,
2013-10-18 03:30:00,44.3,36.2,30.02,NW,325,0.0,7.0,73,0.00,,---,0.00,VWS V14.01,2013-10-18 08:30:00,
2013-10-18 03:31:00,43.3,35.6,30.02,WNW,283,1.0,2.0,74,0.00,,---,0.00,VWS V14.01,2013-10-18 08:31:00,
2013-10-18 03:36:00,43.3,35.6,30.02,NW,325,0.0,4.0,74,0.00,,---,0.00,VWS V14.01,2013-10-18 08:36:00,
2013-10-18 03:41:00,43.2,35.5,30.02,NW,317,0.0,4.0,74,0.00,,---,0.00,VWS V14.01,2013-10-18 08:41:00,
2013-10-18 03:46:00,43.1,35.7,30.02,NNW,327,2.0,5.0,75,0.00,,---,0.00,VWS V14.01,2013-10-18 08:46:00,
2013-10-18 03:51:00,42.9,35.5,30.02,NNW,331,0.0,5.0,75,0.00,,---,0.00,VWS V14.01,2013-10-18 08:51:00,
2013-10-18 03:56:00,42.8,35.4,30.02,NNW,334,1.0,5.0,75,0.00,,---,0.00,VWS V14.01,2013-10-18 08:56:00,
2013-10-18 04:00:00,43.8,36.1,30.03,NNW,327,1.0,4.0,74,0.00,,---,0.00,VWS V14.01,2013-10-18 09:00:00,
2013-10-18 04:01:00,42.6,35.2,30.03,NNW,340,2.0,2.0,75,0.00,,---,0.00,VWS V14.01,2013-10-18 09:01:00,
2013-10-18 04:06:00,42.6,35.2,30.03,NNW,338,0.0,3.0,75,0.00,,---,0.00,VWS V14.01,2013-10-18 09:06:00,
2013-10-18 04:11:00,42.5,35.2,30.03,NNW,338,0.0,3.0,75,0.00,,---,0.00,VWS V14.01,2013-10-18 09:11:00,
2013-10-18 04:16:00,42.3,35.0,30.03,NNW,338,0.0,3.0,75,0.00,,---,0.00,VWS V14.01,2013-10-18 09:16:00,
2013-10-18 04:21:00,42.2,34.9,30.03,NNW,338,1.0,3.0,75,0.00,,---,0.00,VWS V14.01,2013-10-18 09:21:00,
2013-10-18 04:26:00,41.9,34.6,30.03,NNW,338,0.0,3.0,75,0.00,,---,0.00,VWS V14.01,2013-10-18 09:26:00,
2013-10-18 04:30:00,43.3,35.6,30.02,WSW,242,1.0,6.0,74,0.00,,---,0.00,VWS V14.01,2013-10-18 09:30:00,
2013-10-18 04:31:00,41.8,34.5,30.03,NNW,338,0.0,2.0,75,0.00,,---,0.00,VWS V14.01,2013-10-18 09:31:00,
2013-10-18 04:36:00,41.5,34.5,30.03,NNW,337,1.0,4.0,76,0.00,,---,0.00,VWS V14.01,2013-10-18 09:36:00,
2013-10-18 04:41:00,41.3,34.3,30.03,NNW,336,0.0,4.0,76,0.00,,---,0.00,VWS V14.01,2013-10-18 09:41:00,
2013-10-18 04:46:00,41.2,34.2,30.03,NNW,336,0.0,4.0,76,0.00,,---,0.00,VWS V14.01,2013-10-18 09:46:00,
2013-10-18 04:51:00,41.1,34.1,30.03,NNW,336,0.0,4.0,76,0.00,,---,0.00,VWS V14.01,2013-10-18 09:51:00,
2013-10-18 04:56:00,40.9,33.9,30.03,NNW,336,1.0,4.0,76,0.00,,---,0.00,VWS V14.01,2013-10-18 09:56:00,
2013-10-18 05:00:00,42.6,35.2,30.03,NNW,340,1.0,5.0,75,0.00,,---,0.00,VWS V14.01,2013-10-18 10:00:00,
2013-10-18 05:01:00,40.8,34.2,30.03,NNW,336,0.0,0.0,77,0.00,,---,0.00,VWS V14.01,2013-10-18 10:01:00,
2013-10-18 05:06:00,40.6,34.0,30.03,NNW,336,0.0,0.0,77,0.00,,---,0.00,VWS V14.01,2013-10-18 10:06:00,
2013-10-18 05:11:00,40.3,33.7,30.03,NNW,336,0.0,0.0,77,0.00,,---,0.00,VWS V14.01,2013-10-18 10:11:00,
2013-10-18 05:16:00,40.2,33.6,30.03,NNW,336,0.0,0.0,77,0.00,,---,0.00,VWS V14.01,2013-10-18 10:16:00,
2013-10-18 05:21:00,40.1,33.5,30.03,NNW,336,0.0,0.0,77,0.00,,---,0.00,VWS V14.01,2013-10-18 10:21:00,
2013-10-18 05:26:00,39.9,33.3,30.03,NNW,336,0.0,0.0,77,0.00,,---,0.00,VWS V14.01,2013-10-18 10:26:00,
2013-10-18 05:30:00,41.8,34.5,30.03,NNW,338,2.0,3.0,75,0.00,,---,0.00,VWS V14.01,2013-10-18 10:30:00,
2013-10-18 05:31:00,39.8,33.2,30.04,NNW,336,0.0,0.0,77,0.00,,---,0.00,VWS V14.01,2013-10-18 10:31:00,
2013-10-18 05:36:00,39.8,33.5,30.04,NNW,336,0.0,0.0,78,0.00,,---,0.00,VWS V14.01,2013-10-18 10:36:00,
2013-10-18 05:41:00,39.6,33.3,30.04,NNW,336,0.0,0.0,78,0.00,,---,0.00,VWS V14.01,2013-10-18 10:41:00,
2013-10-18 05:46:00,39.5,33.2,30.05,NNW,336,0.0,0.0,78,0.00,,---,0.00,VWS V14.01,2013-10-18 10:46:00,
2013-10-18 05:51:00,39.2,32.9,30.05,NNW,336,0.0,0.0,78,0.00,,---,0.00,VWS V14.01,2013-10-18 10:51:00,
2013-10-18 05:56:00,38.8,32.5,30.05,NNW,336,0.0,0.0,78,0.00,,---,0.00,VWS V14.01,2013-10-18 10:56:00,
2013-10-18 06:00:00,40.9,34.3,30.03,NNW,336,0.0,4.0,77,0.00,,---,0.00,VWS V14.01,2013-10-18 11:00:00,
2013-10-18 06:01:00,38.5,32.2,30.05,NNW,336,0.0,0.0,78,0.00,,---,0.00,VWS V14.01,2013-10-18 11:01:00,
2013-10-18 06:06:00,38.3,32.0,30.05,NNW,336,0.0,0.0,78,0.00,,---,0.00,VWS V14.01,2013-10-18 11:06:00,
2013-10-18 06:11:00,38.3,32.0,30.05,NNW,336,0.0,0.0,78,0.00,,---,0.00,VWS V14.01,2013-10-18 11:11:00,
2013-10-18 06:16:00,38.0,31.8,30.05,NNW,336,0.0,0.0,78,0.00,,---,0.00,VWS V14.01,2013-10-18 11:16:00,
2013-10-18 06:21:00,37.9,31.7,30.05,NNW,336,0.0,0.0,78,0.00,,---,0.00,VWS V14.01,2013-10-18 11:21:00,
2013-10-18 06:26:00,37.6,31.4,30.05,NNW,336,0.0,0.0,78,0.00,,---,0.00,VWS V14.01,2013-10-18 11:26:00,
2013-10-18 06:30:00,39.9,33.3,30.04,NNW,336,0.0,0.0,77,0.00,,---,0.00,VWS V14.01,2013-10-18 11:30:00,
2013-10-18 06:31:00,37.5,31.3,30.05,NNW,336,0.0,0.0,78,0.00,,---,0.00,VWS V14.01,2013-10-18 11:31:00,
2013-10-18 06:36:00,37.3,31.4,30.05,NNW,336,0.0,0.0,79,0.00,,---,0.00,VWS V14.01,2013-10-18 11:36:00,
2013-10-18 06:41:00,37.3,31.4,30.05,NNW,336,0.0,1.0,79,0.00,,---,0.00,VWS V14.01,2013-10-18 11:41:00,
2013-10-18 06:46:00,37.2,31.3,30.06,NNW,336,0.0,1.0,79,0.00,,---,0.00,VWS V14.01,2013-10-18 11:46:00,
2013-10-18 06:51:00,37.5,31.9,30.06,NNW,336,0.0,1.0,80,0.00,,---,0.00,VWS V14.01,2013-10-18 11:51:00,
2013-10-18 06:56:00,38.0,32.4,30.06,NNW,336,1.0,2.0,80,0.00,,---,0.00,VWS V14.01,2013-10-18 11:56:00,
2013-10-18 07:00:00,38.6,32.3,30.05,NNW,336,0.0,0.0,78,0.00,,---,0.00,VWS V14.01,2013-10-18 12:00:00,
2013-10-18 07:01:00,38.3,32.7,30.07,NNW,336,1.0,1.0,80,0.00,,---,0.00,VWS V14.01,2013-10-18 12:01:00,
2013-10-18 07:06:00,38.5,32.9,30.07,NNW,335,1.0,2.0,80,0.00,,---,0.00,VWS V14.01,2013-10-18 12:06:00,
2013-10-18 07:11:00,38.8,33.5,30.07,NNW,334,3.0,3.0,81,0.00,,---,0.00,VWS V14.01,2013-10-18 12:11:00,
2013-10-18 07:16:00,38.9,33.6,30.07,NNW,334,0.0,3.0,81,0.00,,---,0.00,VWS V14.01,2013-10-18 12:16:00,
2013-10-18 07:21:00,38.9,33.6,30.07,NNW,334,1.0,3.0,81,0.00,,---,0.00,VWS V14.01,2013-10-18 12:21:00,
2013-10-18 07:26:00,39.1,33.8,30.07,NNW,334,0.0,3.0,81,0.00,,---,0.00,VWS V14.01,2013-10-18 12:26:00,
2013-10-18 07:30:00,37.5,31.3,30.05,NNW,336,0.0,0.0,78,0.00,,---,0.00,VWS V14.01,2013-10-18 12:30:00,
2013-10-18 07:31:00,39.1,33.8,30.07,NNW,334,0.0,0.0,81,0.00,,---,0.00,VWS V14.01,2013-10-18 12:31:00,
2013-10-18 07:36:00,39.1,33.8,30.07,NNW,334,0.0,0.0,81,0.00,,---,0.00,VWS V14.01,2013-10-18 12:36:00,
2013-10-18 07:41:00,38.9,33.6,30.07,NNW,334,0.0,0.0,81,0.00,,---,0.00,VWS V14.01,2013-10-18 12:41:00,
2013-10-18 07:46:00,38.8,33.5,30.08,NNW,334,0.0,1.0,81,0.00,,---,0.00,VWS V14.01,2013-10-18 12:46:00,
2013-10-18 07:51:00,38.8,33.5,30.08,NNW,334,0.0,1.0,81,0.00,,---,0.00,VWS V14.01,2013-10-18 12:51:00,
2013-10-18 07:56:00,38.9,33.9,30.08,NNW,334,0.0,1.0,82,0.00,,---,0.00,VWS V14.01,2013-10-18 12:56:00,
2013-10-18 08:00:00,38.3,32.7,30.07,NNW,336,0.0,2.0,80,0.00,,---,0.00,VWS V14.01,2013-10-18 13:00:00,
2013-10-18 08:01:00,38.9,33.9,30.08,NNW,336,1.0,1.0,82,0.00,,---,0.00,VWS V14.01,2013-10-18 13:01:00,
2013-10-18 08:06:00,38.9,33.9,30.08,NNW,336,0.0,3.0,82,0.00,,---,0.00,VWS V14.01,2013-10-18 13:06:00,
2013-10-18 08:11:00,39.2,34.2,30.08,NNW,331,0.0,3.0,82,0.00,,---,0.00,VWS V14.01,2013-10-18 13:11:00,
2013-10-18 08:16:00,39.6,34.6,30.08,NNW,334,0.0,3.0,82,0.00,,---,0.00,VWS V14.01,2013-10-18 13:16:00,
2013-10-18 08:21:00,40.1,35.1,30.08,NW,319,1.0,3.0,82,0.00,,---,0.00,VWS V14.01,2013-10-18 13:21:00,
2013-10-18 08:26:00,40.2,35.5,30.08,NW,319,0.0,3.0,83,0.00,,---,0.00,VWS V14.01,2013-10-18 13:26:00,
2013-10-18 08:30:00,39.1,33.8,30.07,NNW,334,0.0,3.0,81,0.00,,---,0.00,VWS V14.01,2013-10-18 13:30:00,
2013-10-18 08:31:00,40.5,35.8,30.10,NW,312,0.0,3.0,83,0.00,,---,0.00,VWS V14.01,2013-10-18 13:31:00,
2013-10-18 08:36:00,40.8,36.0,30.10,NNW,327,0.0,3.0,83,0.00,,---,0.00,VWS V14.01,2013-10-18 13:36:00,
2013-10-18 08:41:00,41.2,36.4,30.10,NNW,333,1.0,5.0,83,0.00,,---,0.00,VWS V14.01,2013-10-18 13:41:00,
2013-10-18 08:46:00,41.6,36.8,30.11,NNW,331,1.0,5.0,83,0.00,,---,0.00,VWS V14.01,2013-10-18 13:46:00,
2013-10-18 08:51:00,42.1,37.3,30.11,North,360,3.0,5.0,83,0.00,,---,0.00,VWS V14.01,2013-10-18 13:51:00,
2013-10-18 08:56:00,42.3,37.5,30.11,North,355,5.0,7.0,83,0.00,,---,0.00,VWS V14.01,2013-10-18 13:56:00,
2013-10-18 09:00:00,38.9,33.9,30.08,NNW,336,1.0,3.0,82,0.00,,---,0.00,VWS V14.01,2013-10-18 14:00:00,
2013-10-18 09:01:00,42.6,37.8,30.11,North,5,3.0,7.0,83,0.00,,---,0.00,VWS V14.01,2013-10-18 14:01:00,
2013-10-18 09:06:00,42.6,37.8,30.11,NNW,344,2.0,5.0,83,0.00,,---,0.00,VWS V14.01,2013-10-18 14:06:00,
2013-10-18 09:11:00,42.9,38.1,30.11,NNW,332,3.0,7.0,83,0.00,,---,0.00,VWS V14.01,2013-10-18 14:11:00,
2013-10-18 09:16:00,42.8,38.0,30.11,NE,41,2.0,8.0,83,0.00,,---,0.00,VWS V14.01,2013-10-18 14:16:00,
2013-10-18 09:21:00,42.8,38.0,30.11,NNW,337,3.0,8.0,83,0.00,,---,0.00,VWS V14.01,2013-10-18 14:21:00,
2013-10-18 09:26:00,42.8,38.0,30.11,NNW,344,4.0,8.0,83,0.00,,---,0.00,VWS V14.01,2013-10-18 14:26:00,
2013-10-18 09:30:00,42.8,38.0,30.11,NNW,348,2.0,8.0,83,0.00,,---,0.00,VWS V14.01,2013-10-18 14:30:00,
2013-10-18 09:35:00,43.1,38.3,30.11,North,355,4.0,10.0,83,0.00,,---,0.00,VWS V14.01,2013-10-18 14:35:00,
2013-10-18 09:41:00,43.1,38.3,30.11,ENE,59,4.0,10.0,83,0.00,,---,0.00,VWS V14.01,2013-10-18 14:41:00,
2013-10-18 09:46:00,43.2,38.4,30.10,NNW,342,4.0,10.0,83,0.00,,---,0.00,VWS V14.01,2013-10-18 14:46:00,
2013-10-18 09:51:00,43.6,39.1,30.10,North,355,4.0,12.0,84,0.00,,---,0.00,VWS V14.01,2013-10-18 14:51:00,
2013-10-18 09:56:00,43.9,39.1,30.10,North,355,5.0,12.0,83,0.00,,---,0.00,VWS V14.01,2013-10-18 14:56:00,
2013-10-18 10:00:00,42.6,37.8,30.11,North,350,3.0,7.0,83,0.00,,---,0.00,VWS V14.01,2013-10-18 15:00:00,
2013-10-18 10:01:00,44.3,39.5,30.11,NE,47,2.0,12.0,83,0.00,,---,0.00,VWS V14.01,2013-10-18 15:01:00,
2013-10-18 10:06:00,44.5,39.7,30.11,NNE,21,3.0,8.0,83,0.00,,---,0.00,VWS V14.01,2013-10-18 15:06:00,
2013-10-18 10:10:00,44.6,39.5,30.11,NNW,339,8.0,10.0,82,0.00,,---,0.00,VWS V14.01,2013-10-18 15:10:00,
2013-10-18 10:15:00,44.5,39.4,30.11,NNW,338,4.0,10.0,82,0.00,,---,0.00,VWS V14.01,2013-10-18 15:15:00,
2013-10-18 10:20:00,44.5,39.4,30.11,NNW,345,3.0,10.0,82,0.00,,---,0.00,VWS V14.01,2013-10-18 15:20:00,
2013-10-18 10:25:00,44.3,39.2,30.11,North,360,4.0,12.0,82,0.00,,---,0.00,VWS V14.01,2013-10-18 15:25:00,
2013-10-18 10:30:00,44.3,39.2,30.11,NNW,347,5.0,12.0,82,0.00,,---,0.00,VWS V14.01,2013-10-18 15:30:00,
2013-10-18 10:35:00,44.3,38.8,30.11,NNE,14,4.0,7.0,81,0.00,,---,0.00,VWS V14.01,2013-10-18 15:35:00,
2013-10-18 10:40:00,44.3,38.8,30.11,NNE,23,3.0,10.0,81,0.00,,---,0.00,VWS V14.01,2013-10-18 15:40:00,
2013-10-18 10:45:00,44.3,38.8,30.11,North,10,6.0,10.0,81,0.00,,---,0.00,VWS V14.01,2013-10-18 15:45:00,
2013-10-18 10:50:00,44.5,39.0,30.11,North,360,7.0,10.0,81,0.00,,---,0.00,VWS V14.01,2013-10-18 15:50:00,
2013-10-18 10:55:00,44.5,38.7,30.11,NNW,333,5.0,10.0,80,0.00,,---,0.00,VWS V14.01,2013-10-18 15:55:00,
2013-10-18 11:00:00,44.8,39.0,30.10,North,355,2.0,10.0,80,0.00,,---,0.00,VWS V14.01,2013-10-18 16:00:00,
2013-10-18 11:05:00,45.2,39.4,30.10,North,9,2.0,8.0,80,0.00,,---,0.00,VWS V14.01,2013-10-18 16:05:00,
2013-10-18 11:10:00,45.5,39.4,30.10,North,5,5.0,10.0,79,0.00,,---,0.00,VWS V14.01,2013-10-18 16:10:00,
2013-10-18 11:15:00,45.7,39.6,30.10,North,9,5.0,10.0,79,0.00,,---,0.00,VWS V14.01,2013-10-18 16:15:00,
2013-10-18 11:20:00,45.7,39.2,30.10,NNE,24,3.0,10.0,78,0.00,,---,0.00,VWS V14.01,2013-10-18 16:20:00,
2013-10-18 11:25:00,45.4,39.0,30.10,North,355,9.0,12.0,78,0.00,,---,0.00,VWS V14.01,2013-10-18 16:25:00,
2013-10-18 11:30:00,45.2,38.4,30.10,NNE,15,4.0,12.0,77,0.00,,---,0.00,VWS V14.01,2013-10-18 16:30:00,
2013-10-18 11:35:00,45.2,38.4,30.10,NE,42,5.0,9.0,77,0.00,,---,0.00,VWS V14.01,2013-10-18 16:35:00,
2013-10-18 11:40:00,45.1,38.0,30.10,NNW,338,7.0,10.0,76,0.00,,---,0.00,VWS V14.01,2013-10-18 16:40:00,
2013-10-18 11:45:00,44.9,37.8,30.11,NNW,347,6.0,11.0,76,0.00,,---,0.00,VWS V14.01,2013-10-18 16:45:00,
2013-10-18 11:50:00,44.6,37.2,30.11,North,5,5.0,11.0,75,0.00,,---,0.00,VWS V14.01,2013-10-18 16:50:00,
2013-10-18 11:55:00,44.5,37.1,30.11,North,350,5.0,11.0,75,0.00,,---,0.00,VWS V14.01,2013-10-18 16:55:00,
2013-10-18 12:00:00,44.2,36.8,30.11,NNW,346,4.0,11.0,75,0.00,,---,0.00,VWS V14.01,2013-10-18 17:00:00,
2013-10-18 12:05:00,43.9,36.2,30.11,North,360,5.0,10.0,74,0.00,,---,0.00,VWS V14.01,2013-10-18 17:05:00,
2013-10-18 12:10:00,43.9,36.2,30.11,North,355,3.0,10.0,74,0.00,,---,0.00,VWS V14.01,2013-10-18 17:10:00,
2013-10-18 12:15:00,43.9,36.2,30.11,NE,36,2.0,10.0,74,0.00,,---,0.00,VWS V14.01,2013-10-18 17:15:00,
2013-10-18 12:20:00,43.8,36.1,30.11,North,360,5.0,10.0,74,0.00,,---,0.00,VWS V14.01,2013-10-18 17:20:00,
2013-10-18 12:25:00,43.6,35.9,30.11,NNW,345,4.0,10.0,74,0.00,,---,0.00,VWS V14.01,2013-10-18 17:25:00,
2013-10-18 12:30:00,43.5,35.4,30.11,North,5,5.0,10.0,73,0.00,,---,0.00,VWS V14.01,2013-10-18 17:30:00,
2013-10-18 12:35:00,43.3,35.2,30.11,NNE,19,4.0,8.0,73,0.00,,---,0.00,VWS V14.01,2013-10-18 17:35:00,
2013-10-18 12:40:00,43.5,35.4,30.11,North,351,1.0,8.0,73,0.00,,---,0.00,VWS V14.01,2013-10-18 17:40:00,
2013-10-18 12:45:00,43.5,35.4,30.11,North,360,4.0,9.0,73,0.00,,---,0.00,VWS V14.01,2013-10-18 17:45:00,
2013-10-18 12:50:00,43.5,35.4,30.10,NNE,32,3.0,9.0,73,0.00,,---,0.00,VWS V14.01,2013-10-18 17:50:00,
2013-10-18 12:55:00,43.2,35.1,30.10,NNE,17,1.0,9.0,73,0.00,,---,0.00,VWS V14.01,2013-10-18 17:55:00,
2013-10-18 13:00:00,43.2,35.1,30.10,NNW,346,5.0,9.0,73,0.00,,---,0.00,VWS V14.01,2013-10-18 18:00:00,
2013-10-18 13:05:00,43.1,35.4,30.10,NNW,329,3.0,7.0,74,0.00,,---,0.00,VWS V14.01,2013-10-18 18:05:00,
2013-10-18 13:10:00,42.8,35.1,30.10,NNW,342,2.0,9.0,74,0.00,,---,0.00,VWS V14.01,2013-10-18 18:10:00,
2013-10-18 13:15:00,42.6,34.9,30.10,NNW,327,4.0,9.0,74,0.00,,---,0.00,VWS V14.01,2013-10-18 18:15:00,
2013-10-18 13:20:00,42.2,34.5,30.11,NNW,329,1.0,9.0,74,0.00,,---,0.00,VWS V14.01,2013-10-18 18:20:00,
2013-10-18 13:25:00,41.9,34.2,30.11,NW,317,6.0,9.0,74,0.00,,---,0.00,VWS V14.01,2013-10-18 18:25:00,
2013-10-18 13:30:00,41.6,34.3,30.11,NNW,334,1.0,9.0,75,0.01,,---,0.01,VWS V14.01,2013-10-18 18:30:00,
2013-10-18 13:34:00,41.2,33.9,30.11,NNE,13,3.0,5.0,75,0.01,,---,0.01,VWS V14.01,2013-10-18 18:34:00,
2013-10-18 13:39:00,40.9,33.9,30.11,NNW,335,2.0,6.0,76,0.02,,---,0.02,VWS V14.01,2013-10-18 18:39:00,
2013-10-18 13:44:00,40.6,33.6,30.11,NNW,335,0.0,6.0,76,0.03,,---,0.03,VWS V14.01,2013-10-18 18:44:00,
2013-10-18 13:49:00,40.3,33.3,30.11,NNW,335,0.0,6.0,76,0.05,,---,0.05,VWS V14.01,2013-10-18 18:49:00,
2013-10-18 13:54:00,40.1,33.2,30.11,NNW,335,0.0,6.0,76,0.06,,---,0.06,VWS V14.01,2013-10-18 18:54:00,
2013-10-18 13:59:00,39.8,33.2,30.11,NNW,336,3.0,6.0,77,0.07,,---,0.07,VWS V14.01,2013-10-18 18:59:00,
2013-10-18 14:00:00,43.1,35.0,30.10,North,5,6.0,9.0,73,0.00,,---,0.00,VWS V14.01,2013-10-18 19:00:00,
2013-10-18 14:04:00,39.5,32.9,30.10,NNW,336,2.0,4.0,77,0.08,,---,0.08,VWS V14.01,2013-10-18 19:04:00,
2013-10-18 14:09:00,39.5,33.2,30.10,NNW,336,5.0,5.0,78,0.09,,---,0.09,VWS V14.01,2013-10-18 19:09:00,
2013-10-18 14:14:00,39.5,33.2,30.10,NNW,339,1.0,5.0,78,0.09,,---,0.09,VWS V14.01,2013-10-18 19:14:00,
2013-10-18 14:19:00,39.5,33.2,30.09,NNW,348,0.0,5.0,78,0.09,,---,0.09,VWS V14.01,2013-10-18 19:19:00,
2013-10-18 14:24:00,39.6,33.6,30.09,NNW,348,0.0,5.0,79,0.09,,---,0.09,VWS V14.01,2013-10-18 19:24:00,
2013-10-18 14:29:00,39.6,33.6,30.09,NNW,331,2.0,5.0,79,0.09,,---,0.09,VWS V14.01,2013-10-18 19:29:00,
2013-10-18 14:30:00,41.5,34.2,30.11,North,5,3.0,9.0,75,0.01,,---,0.01,VWS V14.01,2013-10-18 19:30:00,
2013-10-18 14:34:00,39.6,33.6,30.10,NNW,330,0.0,2.0,79,0.08,,---,0.09,VWS V14.01,2013-10-18 19:34:00,
2013-10-18 14:39:00,39.6,34.0,30.10,NW,310,0.0,5.0,80,0.08,,---,0.09,VWS V14.01,2013-10-18 19:39:00,
2013-10-18 14:44:00,39.6,34.0,30.10,NNW,328,3.0,5.0,80,0.09,,---,0.10,VWS V14.01,2013-10-18 19:44:00,
2013-10-18 14:49:00,39.5,33.8,30.10,NNW,343,1.0,8.0,80,0.09,,---,0.10,VWS V14.01,2013-10-18 19:49:00,
2013-10-18 14:54:00,39.5,34.2,30.10,WNW,297,3.0,8.0,81,0.09,,---,0.10,VWS V14.01,2013-10-18 19:54:00,
2013-10-18 14:59:00,39.3,34.0,30.10,NNW,331,4.0,8.0,81,0.09,,---,0.10,VWS V14.01,2013-10-18 19:59:00,
2013-10-18 15:00:00,39.6,33.0,30.10,NNW,336,3.0,6.0,77,0.08,,---,0.08,VWS V14.01,2013-10-18 20:00:00,
2013-10-18 15:04:00,39.2,33.9,30.12,North,349,0.0,6.0,81,0.03,,---,0.11,VWS V14.01,2013-10-18 20:04:00,
2013-10-18 15:09:00,39.2,33.9,30.12,NNW,344,3.0,6.0,81,0.03,,---,0.11,VWS V14.01,2013-10-18 20:09:00,
2013-10-18 15:14:00,38.9,33.6,30.12,NNW,333,3.0,6.0,81,0.03,,---,0.11,VWS V14.01,2013-10-18 20:14:00,
2013-10-18 15:19:00,38.8,33.5,30.11,NW,322,1.0,6.0,81,0.04,,---,0.12,VWS V14.01,2013-10-18 20:19:00,
2013-10-18 15:24:00,38.8,33.8,30.11,NNW,340,2.0,6.0,82,0.04,,---,0.12,VWS V14.01,2013-10-18 20:24:00,
2013-10-18 15:29:00,38.6,33.6,30.11,NNW,333,1.0,6.0,82,0.04,,---,0.12,VWS V14.01,2013-10-18 20:29:00,
2013-10-18 15:30:00,39.6,33.6,30.10,NNW,330,2.0,5.0,79,0.09,,---,0.09,VWS V14.01,2013-10-18 20:30:00,
2013-10-18 15:34:00,38.6,33.6,30.10,NNW,328,1.0,3.0,82,0.03,,---,0.12,VWS V14.01,2013-10-18 20:34:00,
2013-10-18 15:39:00,38.6,33.6,30.10,NNW,343,0.0,3.0,82,0.03,,---,0.12,VWS V14.01,2013-10-18 20:39:00,
2013-10-18 15:44:00,38.8,33.8,30.10,NNW,343,1.0,3.0,82,0.04,,---,0.13,VWS V14.01,2013-10-18 20:44:00,
2013-10-18 15:49:00,38.8,34.1,30.10,NNE,18,2.0,6.0,83,0.04,,---,0.13,VWS V14.01,2013-10-18 20:49:00,
2013-10-18 15:54:00,38.8,34.1,30.10,NW,325,3.0,6.0,83,0.04,,---,0.13,VWS V14.01,2013-10-18 20:54:00,
2013-10-18 15:59:00,38.6,33.9,30.10,North,350,2.0,6.0,83,0.05,,---,0.14,VWS V14.01,2013-10-18 20:59:00,
2013-10-18 16:00:00,39.3,34.0,30.12,NW,318,3.0,8.0,81,0.09,,---,0.10,VWS V14.01,2013-10-18 21:00:00,
2013-10-18 16:04:00,38.5,33.8,30.11,NNE,28,0.0,3.0,83,0.04,,---,0.14,VWS V14.01,2013-10-18 21:04:00,
2013-10-18 16:09:00,38.5,33.8,30.11,North,5,1.0,4.0,83,0.04,,---,0.14,VWS V14.01,2013-10-18 21:09:00,
2013-10-18 16:14:00,38.5,33.8,30.11,North,349,1.0,4.0,83,0.04,,---,0.14,VWS V14.01,2013-10-18 21:14:00,
2013-10-18 16:19:00,38.5,34.1,30.11,NW,307,0.0,5.0,84,0.04,,---,0.14,VWS V14.01,2013-10-18 21:19:00,
2013-10-18 16:24:00,38.5,34.1,30.11,NNW,328,0.0,5.0,84,0.04,,---,0.14,VWS V14.01,2013-10-18 21:24:00,
2013-10-18 16:29:00,38.3,33.9,30.11,NNW,336,3.0,5.0,84,0.04,,---,0.14,VWS V14.01,2013-10-18 21:29:00,
2013-10-18 16:30:00,38.6,33.6,30.10,NW,309,0.0,6.0,82,0.04,,---,0.12,VWS V14.01,2013-10-18 21:30:00,
2013-10-18 16:34:00,38.2,33.8,30.11,NNW,342,2.0,3.0,84,0.02,,---,0.14,VWS V14.01,2013-10-18 21:34:00,
2013-10-18 16:39:00,38.2,33.8,30.11,NNW,328,3.0,3.0,84,0.02,,---,0.14,VWS V14.01,2013-10-18 21:39:00,
2013-10-18 16:44:00,38.2,33.8,30.11,NNW,328,0.0,3.0,84,0.02,,---,0.14,VWS V14.01,2013-10-18 21:44:00,
2013-10-18 16:49:00,38.0,33.6,30.11,NNW,327,1.0,4.0,84,0.03,,---,0.15,VWS V14.01,2013-10-18 21:49:00,
2013-10-18 16:54:00,38.0,33.6,30.11,NNW,345,0.0,4.0,84,0.03,,---,0.15,VWS V14.01,2013-10-18 21:54:00,
2013-10-18 16:59:00,37.9,33.8,30.11,NW,323,2.0,4.0,85,0.03,,---,0.15,VWS V14.01,2013-10-18 21:59:00,
2013-10-18 17:00:00,38.5,33.8,30.11,NNW,338,1.0,6.0,83,0.05,,---,0.14,VWS V14.01,2013-10-18 22:00:00,
2013-10-18 17:04:00,37.9,33.8,30.10,NW,309,2.0,6.0,85,0.01,,---,0.15,VWS V14.01,2013-10-18 22:04:00,
2013-10-18 17:09:00,37.8,33.7,30.10,NNW,348,0.0,6.0,85,0.01,,---,0.15,VWS V14.01,2013-10-18 22:09:00,
2013-10-18 17:14:00,37.8,33.7,30.10,NNW,344,2.0,6.0,85,0.01,,---,0.15,VWS V14.01,2013-10-18 22:14:00,
2013-10-18 17:19:00,37.8,33.7,30.10,NNW,339,2.0,6.0,85,0.01,,---,0.15,VWS V14.01,2013-10-18 22:19:00,
2013-10-18 17:24:00,37.6,33.5,30.10,NW,325,1.0,6.0,85,0.01,,---,0.15,VWS V14.01,2013-10-18 22:24:00,
2013-10-18 17:29:00,37.8,33.7,30.10,NW,323,2.0,6.0,85,0.01,,---,0.15,VWS V14.01,2013-10-18 22:29:00,
2013-10-18 17:30:00,38.3,33.9,30.11,NW,326,1.0,5.0,84,0.04,,---,0.14,VWS V14.01,2013-10-18 22:30:00,
2013-10-18 17:34:00,37.6,33.5,30.10,WNW,296,0.0,4.0,85,0.01,,---,0.15,VWS V14.01,2013-10-18 22:34:00,
2013-10-18 17:39:00,37.8,34.0,30.10,NW,323,0.0,4.0,86,0.01,,---,0.15,VWS V14.01,2013-10-18 22:39:00,
2013-10-18 17:44:00,37.8,34.0,30.10,NNW,335,2.0,4.0,86,0.01,,---,0.15,VWS V14.01,2013-10-18 22:44:00,
2013-10-18 17:49:00,37.8,34.0,30.10,NW,319,2.0,4.0,86,0.01,,---,0.15,VWS V14.01,2013-10-18 22:49:00,
2013-10-18 17:54:00,37.6,33.8,30.10,NW,324,0.0,4.0,86,0.01,,---,0.15,VWS V14.01,2013-10-18 22:54:00,
2013-10-18 17:59:00,37.6,33.8,30.10,NNW,328,0.0,4.0,86,0.01,,---,0.15,VWS V14.01,2013-10-18 22:59:00,
2013-10-18 18:00:00,37.9,33.8,30.10,NNW,348,3.0,4.0,85,0.03,,---,0.15,VWS V14.01,2013-10-18 23:00:00,
2013-10-18 18:04:00,37.6,33.8,30.11,NNW,329,0.0,3.0,86,0.00,,---,0.15,VWS V14.01,2013-10-18 23:04:00,
2013-10-18 18:09:00,37.6,33.8,30.11,NW,323,2.0,3.0,86,0.01,,---,0.16,VWS V14.01,2013-10-18 23:09:00,
2013-10-18 18:14:00,37.6,33.8,30.11,NW,308,0.0,3.0,86,0.01,,---,0.16,VWS V14.01,2013-10-18 23:14:00,
2013-10-18 18:19:00,37.6,33.8,30.11,NW,321,2.0,3.0,86,0.01,,---,0.16,VWS V14.01,2013-10-18 23:19:00,
2013-10-18 18:24:00,37.6,33.8,30.11,NW,323,0.0,3.0,86,0.01,,---,0.16,VWS V14.01,2013-10-18 23:24:00,
2013-10-18 18:29:00,37.6,33.8,30.11,NW,323,0.0,3.0,86,0.02,,---,0.17,VWS V14.01,2013-10-18 23:29:00,
2013-10-18 18:30:00,37.6,33.5,30.10,NNW,346,2.0,6.0,85,0.01,,---,0.15,VWS V14.01,2013-10-18 23:30:00,
2013-10-18 18:34:00,37.8,34.3,30.11,NW,323,0.0,0.0,87,0.02,,---,0.17,VWS V14.01,2013-10-18 23:34:00,
2013-10-18 18:39:00,37.8,34.3,30.11,NW,323,0.0,1.0,87,0.02,,---,0.17,VWS V14.01,2013-10-18 23:39:00,
2013-10-18 18:44:00,37.8,34.3,30.11,NW,323,0.0,1.0,87,0.02,,---,0.17,VWS V14.01,2013-10-18 23:44:00,
2013-10-18 18:49:00,37.6,34.1,30.11,NW,323,0.0,1.0,87,0.02,,---,0.17,VWS V14.01,2013-10-18 23:49:00,
2013-10-18 18:54:00,37.8,34.3,30.11,NW,323,1.0,1.0,87,0.03,,---,0.18,VWS V14.01,2013-10-18 23:54:00,
2013-10-18 18:59:00,37.6,34.1,30.11,NW,323,0.0,1.0,87,0.03,,---,0.18,VWS V14.01,2013-10-18 23:59:00,
2013-10-18 19:00:00,37.6,33.8,30.11,NNW,328,0.0,4.0,86,0.01,,---,0.15,VWS V14.01,2013-10-19 00:00:00,
2013-10-18 19:04:00,37.6,34.1,30.11,NW,323,0.0,0.0,87,0.03,,---,0.18,VWS V14.01,2013-10-19 00:04:00,
2013-10-18 19:09:00,37.8,34.3,30.11,NW,323,0.0,1.0,87,0.03,,---,0.18,VWS V14.01,2013-10-19 00:09:00,
2013-10-18 19:14:00,37.8,34.3,30.11,NW,323,0.0,3.0,87,0.03,,---,0.18,VWS V14.01,2013-10-19 00:14:00,
2013-10-18 19:19:00,37.8,34.3,30.11,NW,323,0.0,3.0,87,0.03,,---,0.18,VWS V14.01,2013-10-19 00:19:00,
2013-10-18 19:24:00,37.8,34.3,30.11,NW,323,0.0,3.0,87,0.03,,---,0.18,VWS V14.01,2013-10-19 00:24:00,
2013-10-18 19:29:00,37.8,34.3,30.11,NW,323,0.0,3.0,87,0.03,,---,0.18,VWS V14.01,2013-10-19 00:29:00,
2013-10-18 19:30:00,37.6,34.1,30.11,NW,323,0.0,3.0,87,0.02,,---,0.17,VWS V14.01,2013-10-19 00:30:00,
2013-10-18 19:34:00,37.8,34.3,30.10,NW,323,0.0,0.0,87,0.01,,---,0.18,VWS V14.01,2013-10-19 00:34:00,
2013-10-18 19:39:00,37.8,34.3,30.10,NW,323,0.0,2.0,87,0.01,,---,0.18,VWS V14.01,2013-10-19 00:39:00,
2013-10-18 19:44:00,37.8,34.3,30.10,NW,323,0.0,2.0,87,0.01,,---,0.18,VWS V14.01,2013-10-19 00:44:00,
2013-10-18 19:49:00,37.8,34.3,30.11,NW,323,0.0,2.0,87,0.01,,---,0.18,VWS V14.01,2013-10-19 00:49:00,
2013-10-18 19:54:00,37.8,34.3,30.11,NW,323,0.0,2.0,87,0.01,,---,0.18,VWS V14.01,2013-10-19 00:54:00,
2013-10-18 19:59:00,37.6,34.4,30.11,NW,323,0.0,2.0,88,0.01,,---,0.18,VWS V14.01,2013-10-19 00:59:00,
2013-10-18 20:00:00,37.6,34.1,30.11,NW,323,0.0,1.0,87,0.03,,---,0.18,VWS V14.01,2013-10-19 01:00:00,
2013-10-18 20:04:00,37.6,34.4,30.10,NW,323,0.0,0.0,88,0.00,,---,0.18,VWS V14.01,2013-10-19 01:04:00,
2013-10-18 20:09:00,37.6,34.4,30.10,NW,323,0.0,0.0,88,0.00,,---,0.18,VWS V14.01,2013-10-19 01:09:00,
2013-10-18 20:14:00,37.6,34.4,30.10,NW,323,0.0,0.0,88,0.00,,---,0.18,VWS V14.01,2013-10-19 01:14:00,
2013-10-18 20:19:00,37.8,34.6,30.11,NW,323,0.0,0.0,88,0.00,,---,0.18,VWS V14.01,2013-10-19 01:19:00,
2013-10-18 20:24:00,37.8,34.6,30.11,NW,323,0.0,0.0,88,0.00,,---,0.18,VWS V14.01,2013-10-19 01:24:00,
2013-10-18 20:29:00,37.8,34.6,30.11,NW,323,0.0,0.0,88,0.00,,---,0.18,VWS V14.01,2013-10-19 01:29:00,
2013-10-18 20:30:00,37.8,34.3,30.10,NW,323,0.0,3.0,87,0.03,,---,0.18,VWS V14.01,2013-10-19 01:30:00,
2013-10-18 20:34:00,37.8,34.6,30.11,NW,323,0.0,0.0,88,0.00,,---,0.18,VWS V14.01,2013-10-19 01:34:00,
2013-10-18 20:39:00,37.8,34.6,30.11,NW,323,0.0,0.0,88,0.00,,---,0.18,VWS V14.01,2013-10-19 01:39:00,
2013-10-18 20:44:00,37.8,34.6,30.11,NW,323,0.0,0.0,88,0.00,,---,0.18,VWS V14.01,2013-10-19 01:44:00,
2013-10-18 20:49:00,37.9,34.7,30.11,NW,323,0.0,0.0,88,0.00,,---,0.18,VWS V14.01,2013-10-19 01:49:00,
2013-10-18 20:54:00,37.9,35.0,30.11,WSW,252,0.0,1.0,89,0.00,,---,0.18,VWS V14.01,2013-10-19 01:54:00,
2013-10-18 20:59:00,37.9,35.0,30.11,WSW,252,0.0,2.0,89,0.00,,---,0.18,VWS V14.01,2013-10-19 01:59:00,
2013-10-18 21:00:00,37.6,34.4,30.10,NW,323,0.0,2.0,88,0.01,,---,0.18,VWS V14.01,2013-10-19 02:00:00,
2013-10-18 21:04:00,37.8,34.9,30.11,WSW,247,0.0,2.0,89,0.00,,---,0.18,VWS V14.01,2013-10-19 02:04:00,
2013-10-18 21:09:00,37.8,34.9,30.11,NNW,335,0.0,3.0,89,0.00,,---,0.18,VWS V14.01,2013-10-19 02:09:00,
2013-10-18 21:14:00,37.8,34.9,30.11,NW,322,0.0,3.0,89,0.00,,---,0.18,VWS V14.01,2013-10-19 02:14:00,
2013-10-18 21:19:00,37.8,34.9,30.11,WNW,286,0.0,3.0,89,0.00,,---,0.18,VWS V14.01,2013-10-19 02:19:00,
2013-10-18 21:24:00,37.6,34.7,30.11,WNW,296,0.0,3.0,89,0.00,,---,0.18,VWS V14.01,2013-10-19 02:24:00,
2013-10-18 21:29:00,37.6,34.7,30.11,West,275,1.0,3.0,89,0.00,,---,0.18,VWS V14.01,2013-10-19 02:29:00,
2013-10-18 21:30:00,37.8,34.6,30.11,NW,323,0.0,0.0,88,0.00,,---,0.18,VWS V14.01,2013-10-19 02:30:00,
2013-10-18 21:34:00,37.6,34.7,30.11,West,275,0.0,1.0,89,0.00,,---,0.18,VWS V14.01,2013-10-19 02:34:00,
2013-10-18 21:39:00,37.6,34.7,30.11,West,275,0.0,1.0,89,0.00,,---,0.18,VWS V14.01,2013-10-19 02:39:00,
2013-10-18 21:44:00,37.5,34.6,30.11,West,276,0.0,1.0,89,0.00,,---,0.18,VWS V14.01,2013-10-19 02:44:00,
2013-10-18 21:49:00,37.5,34.6,30.12,WSW,256,1.0,3.0,89,0.00,,---,0.18,VWS V14.01,2013-10-19 02:49:00,
2013-10-18 21:54:00,37.5,34.6,30.12,North,360,0.0,3.0,89,0.00,,---,0.18,VWS V14.01,2013-10-19 02:54:00,
2013-10-18 21:59:00,37.5,34.8,30.12,NNW,342,0.0,3.0,90,0.00,,---,0.18,VWS V14.01,2013-10-19 02:59:00,
2013-10-18 22:00:00,37.9,35.0,30.11,WSW,247,0.0,2.0,89,0.00,,---,0.18,VWS V14.01,2013-10-19 03:00:00,
2013-10-18 22:04:00,37.5,34.8,30.12,WSW,249,0.0,1.0,90,0.00,,---,0.18,VWS V14.01,2013-10-19 03:04:00,
2013-10-18 22:09:00,37.5,34.8,30.12,West,271,1.0,4.0,90,0.00,,---,0.18,VWS V14.01,2013-10-19 03:09:00,
2013-10-18 22:14:00,37.3,34.6,30.12,NNE,15,0.0,4.0,90,0.00,,---,0.18,VWS V14.01,2013-10-19 03:14:00,
2013-10-18 22:19:00,37.3,34.6,30.12,NW,309,0.0,4.0,90,0.00,,---,0.18,VWS V14.01,2013-10-19 03:19:00,
2013-10-18 22:24:00,37.3,34.6,30.12,NW,321,0.0,4.0,90,0.00,,---,0.18,VWS V14.01,2013-10-19 03:24:00,
2013-10-18 22:29:00,37.2,34.5,30.12,NW,304,0.0,4.0,90,0.00,,---,0.18,VWS V14.01,2013-10-19 03:29:00,
2013-10-18 22:30:00,37.6,34.7,30.11,West,275,0.0,3.0,89,0.00,,---,0.18,VWS V14.01,2013-10-19 03:30:00,
2013-10-18 22:34:00,37.2,34.5,30.12,WSW,242,1.0,3.0,90,0.00,,---,0.18,VWS V14.01,2013-10-19 03:34:00,
2013-10-18 22:39:00,37.2,34.5,30.12,NW,307,0.0,3.0,90,0.00,,---,0.18,VWS V14.01,2013-10-19 03:39:00,
2013-10-18 22:44:00,37.0,34.3,30.12,WNW,284,1.0,3.0,90,0.00,,---,0.18,VWS V14.01,2013-10-19 03:44:00,
2013-10-18 22:49:00,37.0,34.3,30.11,WSW,248,0.0,5.0,90,0.00,,---,0.18,VWS V14.01,2013-10-19 03:49:00,
2013-10-18 22:54:00,36.9,34.2,30.11,West,263,0.0,5.0,90,0.00,,---,0.18,VWS V14.01,2013-10-19 03:54:00,
2013-10-18 22:59:00,36.8,34.2,30.11,WSW,250,0.0,5.0,90,0.00,,---,0.18,VWS V14.01,2013-10-19 03:59:00,
2013-10-18 23:00:00,37.5,34.8,30.12,NNW,342,0.0,3.0,90,0.00,,---,0.18,VWS V14.01,2013-10-19 04:00:00,
2013-10-18 23:01:00,36.6,34.0,30.11,West,259,0.0,5.0,90,0.00,,---,0.18,VWS V14.01,2013-10-19 04:01:00,
2013-10-18 23:06:00,36.6,34.0,30.11,West,259,2.0,2.0,90,0.00,,---,0.18,VWS V14.01,2013-10-19 04:06:00,
2013-10-18 23:11:00,36.6,34.0,30.11,WSW,246,2.0,3.0,90,0.00,,---,0.18,VWS V14.01,2013-10-19 04:11:00,
2013-10-18 23:16:00,36.5,33.8,30.11,WSW,254,1.0,6.0,90,0.00,,---,0.18,VWS V14.01,2013-10-19 04:16:00,
2013-10-18 23:21:00,36.3,33.7,30.11,WNW,289,2.0,6.0,90,0.00,,---,0.18,VWS V14.01,2013-10-19 04:21:00,
2013-10-18 23:26:00,36.2,33.8,30.11,SW,234,0.0,6.0,91,0.00,,---,0.18,VWS V14.01,2013-10-19 04:26:00,
2013-10-18 23:30:00,37.2,34.5,30.12,West,269,0.0,4.0,90,0.00,,---,0.18,VWS V14.01,2013-10-19 04:30:00,
2013-10-18 23:31:00,36.2,33.8,30.11,WNW,298,0.0,0.0,91,0.00,,---,0.18,VWS V14.01,2013-10-19 04:31:00,
2013-10-18 23:36:00,36.2,33.8,30.11,WNW,283,0.0,3.0,91,0.00,,---,0.18,VWS V14.01,2013-10-19 04:36:00,
2013-10-18 23:41:00,36.0,33.6,30.11,WSW,237,0.0,4.0,91,0.00,,---,0.18,VWS V14.01,2013-10-19 04:41:00,
2013-10-18 23:46:00,35.9,33.5,30.11,WSW,246,0.0,4.0,91,0.00,,---,0.18,VWS V14.01,2013-10-19 04:46:00,
2013-10-18 23:51:00,35.9,33.5,30.11,SW,234,3.0,5.0,91,0.00,,---,0.18,VWS V14.01,2013-10-19 04:51:00,
2013-10-18 23:56:00,35.8,33.4,30.11,West,261,2.0,5.0,91,0.00,,---,0.18,VWS V14.01,2013-10-19 04:56:00,